KQ4LLM Weather Reports


time (UTC)temp
C
wind
direction
speed
KPH
gust
KPH
rain 1hr
cm
rain 24hr
cm
rain mn
cm
humidity
%
barometer
mb
20260509002826 17 130 0.0 0.0 0.00 0.00 0.00 70
20260509002324 17 130 0.0 0.0 0.00 0.00 0.00 70
20260509001822 17 130 0.0 0.0 0.00 0.00 0.00 70
20260509001317 17 130 0.0 0.0 0.00 0.00 0.00 69
20260509000815 17 130 0.0 0.0 0.00 0.00 0.00 71
20260509000313 17 130 0.0 0.0 0.00 0.00 0.00 67
20260508235809 17 130 0.0 0.0 0.00 0.00 0.00 68
20260508235306 18 130 0.0 0.0 0.00 0.00 0.00 72
20260508234803 18 136 0.0 0.0 0.00 0.00 0.00 65
20260508234253 18 136 0.0 0.0 0.00 0.00 0.00 65
20260508233747 18 135 0.0 0.0 0.00 0.00 0.00 64
20260508233245 18 135 0.0 0.0 0.00 0.00 0.00 66
20260508232742 18 136 0.0 0.0 0.00 0.00 0.00 65
20260508232238 18 135 0.0 0.0 0.00 0.00 0.00 66
20260508231737 18 135 0.0 0.0 0.00 0.00 0.00 69
20260508231233 18 135 0.0 0.0 0.00 0.00 0.00 62
20260508230730 18 136 0.0 0.0 0.00 0.00 0.00 66
20260508230226 18 135 0.0 0.0 0.00 0.00 0.00 67
20260508225724 18 136 0.0 0.0 0.00 0.00 0.00 63
20260508225220 18 135 0.0 0.0 0.00 0.00 0.00 67
20260508224718 18 135 0.0 0.0 0.00 0.00 0.00 67
20260508224215 19 135 0.0 0.0 0.00 0.00 0.00 60
20260508223713 19 135 0.0 0.0 0.00 0.00 0.00 62
20260508223210 19 135 0.0 0.0 0.00 0.00 0.00 61
20260508222707 19 129 0.0 0.0 0.00 0.00 0.00 63
20260508222205 19 130 0.0 0.0 0.00 0.00 0.00 61
20260508221701 19 140 0.0 0.0 0.00 0.00 0.00 62
20260508221156 19 139 0.0 0.0 0.00 0.00 0.00 62
20260508220653 19 140 0.0 1.6 0.00 0.00 0.00 61
20260508220150 19 133 0.0 1.6 0.00 0.00 0.00 60
20260508215646 20 140 0.0 0.0 0.00 0.00 0.00 60
20260508215143 20 140 0.0 0.0 0.00 0.00 0.00 60
20260508214640 20 140 0.0 0.0 0.00 0.00 0.00 58
20260508214137 20 140 0.0 0.0 0.00 0.00 0.00 61
20260508213634 20 128 0.0 1.6 0.00 0.00 0.00 60
20260508213130 20 137 0.0 0.0 0.00 0.00 0.00 57
20260508212627 20 143 0.0 0.0 0.00 0.00 0.00 60
20260508212123 20 149 1.6 1.6 0.00 0.00 0.00 59
20260508211618 20 126 1.6 4.8 0.00 0.00 0.00 58
20260508211115 20 129 0.0 1.6 0.00 0.00 0.00 57
20260508210612 20 135 0.0 1.6 0.00 0.00 0.00 59
20260508210109 20 143 1.6 1.6 0.00 0.00 0.00 59
20260508205606 20 139 1.6 1.6 0.00 0.00 0.00 55
20260508205103 20 129 0.0 0.0 0.00 0.00 0.00 56
20260508204559 20 135 0.0 1.6 0.00 0.00 0.00 53
20260508204055 20 142 0.0 0.0 0.00 0.00 0.00 59
20260508203551 20 135 0.0 0.0 0.00 0.00 0.00 54
20260508203047 20 146 1.6 1.6 0.00 0.00 0.00 55
20260508202544 20 148 1.6 3.2 0.00 0.00 0.00 56
20260508202042 20 150 1.6 3.2 0.00 0.00 0.00 56
20260508201538 20 132 3.2 3.2 0.00 0.00 0.00 52
20260508201034 20 133 0.0 1.6 0.00 0.00 0.00 54
20260508200532 20 148 1.6 3.2 0.00 0.00 0.00 52
20260508200027 21 140 0.0 3.2 0.00 0.00 0.00 54
20260508195524 21 142 1.6 1.6 0.00 0.00 0.00 53
20260508195020 21 149 1.6 3.2 0.00 0.00 0.00 50
20260508194518 21 140 0.0 1.6 0.00 0.00 0.00 51
20260508194015 21 120 1.6 3.2 0.00 0.00 0.00 50
20260508193511 21 132 0.0 1.6 0.00 0.00 0.00 50
20260508193008 21 146 1.6 3.2 0.00 0.00 0.00 49
20260508192504 22 134 0.0 3.2 0.00 0.00 0.00 47
20260508192002 22 139 1.6 1.6 0.00 0.00 0.00 48
20260508191458 22 140 0.0 1.6 0.00 0.00 0.00 48
20260508190955 21 158 0.0 1.6 0.00 0.00 0.00 51
20260508190453 20 134 3.2 3.2 0.00 0.00 0.00 51
20260508185948 21 133 1.6 4.8 0.00 0.00 0.00 52
20260508185446 21 139 0.0 4.8 0.00 0.00 0.00 50
20260508184943 22 138 0.0 3.2 0.00 0.00 0.00 48
20260508184441 21 137 0.0 1.6 0.00 0.00 0.00 49
20260508183937 20 148 3.2 3.2 0.00 0.00 0.00 52
20260508183434 21 128 3.2 4.8 0.00 0.00 0.00 50
20260508182929 21 152 1.6 1.6 0.00 0.00 0.00 49
20260508182427 21 141 0.0 1.6 0.00 0.00 0.00 49
20260508181926 20 137 1.6 3.2 0.00 0.00 0.00 52
20260508181424 21 142 0.0 1.6 0.00 0.00 0.00 49
20260508180921 21 132 0.0 1.6 0.00 0.00 0.00 50
20260508180418 21 123 1.6 4.8 0.00 0.00 0.00 53
20260508175914 21 135 1.6 3.2 0.00 0.00 0.00 51
20260508175411 20 135 0.0 3.2 0.00 0.00 0.00 51
20260508174909 19 154 3.2 4.8 0.00 0.00 0.00 53
20260508174406 20 142 0.0 3.2 0.00 0.00 0.00 53
20260508173902 20 146 0.0 3.2 0.00 0.00 0.00 50
20260508173400 20 134 0.0 3.2 0.00 0.00 0.00 56
20260508172855 20 130 1.6 4.8 0.00 0.00 0.00 51
20260508172353 20 131 3.2 4.8 0.00 0.00 0.00 54
20260508171848 20 116 1.6 3.2 0.00 0.00 0.00 53
20260508171345 20 125 1.6 1.6 0.00 0.00 0.00 54
20260508170842 20 121 1.6 3.2 0.00 0.00 0.00 53
20260508170340 20 128 3.2 4.8 0.00 0.00 0.00 51
20260508165836 18 133 0.0 3.2 0.00 0.00 0.00 55
20260508165334 18 155 1.6 3.2 0.00 0.00 0.00 56
20260508164829 18 135 1.6 3.2 0.00 0.00 0.00 56
20260508164326 18 145 3.2 3.2 0.00 0.00 0.00 58
20260508163824 18 140 3.2 3.2 0.00 0.00 0.00 55
20260508163322 18 115 0.0 4.8 0.00 0.00 0.00 55
20260508162818 18 136 1.6 3.2 0.00 0.00 0.00 54
20260508162314 18 156 3.2 3.2 0.00 0.00 0.00 54
20260508161812 19 138 0.0 3.2 0.00 0.00 0.00 54
20260508161309 18 137 0.0 1.6 0.00 0.00 0.00 55
20260508160806 17 140 1.6 3.2 0.00 0.00 0.00 60
20260508160305 18 147 4.8 4.8 0.00 0.00 0.00 57
20260508155801 18 104 3.2 3.2 0.00 0.00 0.00 54
20260508155258 18 133 3.2 3.2 0.00 0.00 0.00 52
20260508154754 18 88 1.6 4.8 0.00 0.00 0.00 53
20260508154253 18 132 1.6 3.2 0.00 0.00 0.00 55
20260508153749 17 132 0.0 3.2 0.00 0.00 0.00 58
20260508153246 17 138 1.6 4.8 0.00 0.00 0.00 56
20260508152742 17 130 0.0 1.6 0.00 0.00 0.00 56
20260508152238 17 142 1.6 4.8 0.00 0.00 0.00 57
20260508151735 17 136 3.2 4.8 0.00 0.00 0.00 58
20260508151232 17 152 1.6 4.8 0.00 0.00 0.00 61
20260508150728 17 134 4.8 4.8 0.00 0.00 0.00 59
20260508150225 17 150 1.6 3.2 0.00 0.00 0.00 60
20260508145721 17 133 3.2 3.2 0.00 0.00 0.00 57
20260508145217 17 143 0.0 1.6 0.00 0.00 0.00 59
20260508144715 17 143 1.6 3.2 0.00 0.00 0.00 58
20260508144213 17 143 3.2 4.8 0.00 0.00 0.00 57
20260508143710 17 142 1.6 3.2 0.00 0.00 0.00 60
20260508143207 17 129 1.6 3.2 0.00 0.00 0.00 61
20260508142703 16 125 1.6 3.2 0.00 0.00 0.00 60
20260508142200 16 133 0.0 3.2 0.00 0.00 0.00 60
20260508141656 16 127 4.8 4.8 0.00 0.00 0.00 62
20260508141153 16 140 1.6 4.8 0.00 0.00 0.00 61
20260508140651 16 126 1.6 3.2 0.00 0.00 0.00 60
20260508140148 16 136 3.2 3.2 0.00 0.00 0.00 62
20260508135644 16 133 0.0 3.2 0.00 0.00 0.00 61
20260508135139 16 128 3.2 3.2 0.00 0.00 0.00 63
20260508134636 16 138 3.2 4.8 0.00 0.00 0.00 62
20260508134133 16 130 1.6 4.8 0.00 0.00 0.00 62
20260508133630 16 125 1.6 3.2 0.00 0.00 0.00 63
20260508133127 15 136 0.0 1.6 0.00 0.00 0.00 66
20260508132625 15 71 1.6 3.2 0.00 0.00 0.00 65
20260508132122 15 113 3.2 3.2 0.00 0.00 0.00 67
20260508131617 15 128 0.0 1.6 0.00 0.00 0.00 67
20260508131114 15 122 1.6 4.8 0.00 0.00 0.00 67
20260508130611 15 135 1.6 1.6 0.00 0.00 0.00 67
20260508130108 15 123 1.6 3.2 0.00 0.00 0.00 68
20260508125608 14 142 0.0 3.2 0.00 0.00 0.00 69
20260508125106 14 49 1.6 4.8 0.00 0.00 0.00 69
20260508124604 14 79 3.2 9.7 0.00 0.00 0.00 70
20260508124100 14 118 1.6 3.2 0.00 0.00 0.00 72
20260508123559 14 123 1.6 3.2 0.00 0.00 0.00 73
20260508123056 13 127 0.0 0.0 0.00 0.00 0.00 74
20260508122552 13 112 1.6 3.2 0.00 0.00 0.00 74
20260508122049 13 88 4.8 4.8 0.00 0.00 0.00 74
20260508121548 13 127 1.6 3.2 0.00 0.00 0.00 75
20260508121045 13 117 1.6 3.2 0.00 0.00 0.00 75
20260508120542 13 71 0.0 0.0 0.00 0.00 0.00 76
20260508120041 13 123 0.0 1.6 0.00 0.00 0.00 76
20260508115538 12 118 3.2 4.8 0.00 0.00 0.00 76
20260508115034 12 121 0.0 1.6 0.00 0.00 0.00 78
20260508114531 12 123 1.6 1.6 0.00 0.00 0.00 79
20260508114028 12 124 0.0 0.0 0.00 0.00 0.00 80
20260508113525 12 117 1.6 1.6 0.00 0.00 0.00 81
20260508113023 12 123 0.0 1.6 0.00 0.00 0.00 81
20260508112519 12 121 0.0 0.0 0.00 0.00 0.00 82
20260508112016 12 120 0.0 0.0 0.00 0.00 0.00 82
20260508111513 12 121 0.0 1.6 0.00 0.00 0.00 82
20260508111010 12 121 0.0 0.0 0.00 0.00 0.00 81
20260508110508 12 122 0.0 1.6 0.00 0.00 0.00 81
20260508110004 11 121 0.0 0.0 0.00 0.00 0.00 82
20260508105459 11 121 0.0 1.6 0.00 0.00 0.00 82
20260508104956 11 118 0.0 1.6 0.00 0.00 0.00 83
20260508104454 11 123 0.0 0.0 0.00 0.00 0.00 84
20260508103950 11 123 0.0 0.0 0.00 0.00 0.00 86
20260508103447 11 123 0.0 0.0 0.00 0.00 0.00 86
20260508102944 11 123 0.0 0.0 0.00 0.00 0.00 84
20260508102443 12 123 0.0 0.0 0.00 0.00 0.00 83
20260508101939 12 123 0.0 1.6 0.00 0.00 0.00 81
20260508101437 12 71 0.0 1.6 0.00 0.00 0.00 80
20260508100934 12 124 0.0 0.0 0.00 0.00 0.00 80
20260508100433 12 125 0.0 0.0 0.00 0.00 0.00 78
20260508095928 12 125 0.0 0.0 0.00 0.00 0.00 77
20260508095426 12 127 0.0 0.0 0.00 0.00 0.00 76
20260508094923 12 132 0.0 0.0 0.00 0.00 0.00 77
20260508094419 12 128 0.0 0.0 0.00 0.00 0.00 78
20260508093916 12 71 0.0 1.6 0.00 0.00 0.00 76
20260508093414 12 133 0.0 0.0 0.00 0.00 0.00 78
20260508092911 12 142 0.0 0.0 0.00 0.00 0.00 77
20260508092409 12 115 0.0 0.0 0.00 0.00 0.00 75
20260508091907 12 115 0.0 0.0 0.00 0.00 0.00 75
20260508091404 13 142 0.0 0.0 0.00 0.00 0.00 74
20260508090901 13 130 0.0 0.0 0.00 0.00 0.00 74
20260508090400 13 116 3.2 3.2 0.00 0.00 0.00 74
20260508085855 13 125 0.0 1.6 0.00 0.00 0.00 73
20260508085352 13 121 1.6 1.6 0.00 0.00 0.00 73
20260508084848 13 112 0.0 3.2 0.00 0.00 0.00 73
20260508084345 13 121 0.0 3.2 0.00 0.00 0.00 73
20260508083843 13 120 0.0 3.2 0.00 0.00 0.00 73
20260508083341 13 95 3.2 3.2 0.00 0.00 0.00 73
20260508082840 13 90 0.0 3.2 0.00 0.00 0.00 72
20260508082338 13 115 1.6 4.8 0.00 0.00 0.00 72
20260508081835 13 110 1.6 4.8 0.00 0.00 0.00 71
20260508081332 13 118 1.6 3.2 0.00 0.00 0.00 70
20260508080829 13 105 3.2 3.2 0.00 0.00 0.00 70
20260508080327 13 108 1.6 3.2 0.00 0.00 0.00 70
20260508075823 14 125 0.0 1.6 0.00 0.00 0.00 70
20260508075320 14 112 0.0 3.2 0.00 0.00 0.00 69
20260508074818 14 67 4.8 4.8 0.00 0.00 0.00 69
20260508074315 13 129 0.0 3.2 0.00 0.00 0.00 71
20260508073812 13 112 0.0 1.6 0.00 0.00 0.00 71
20260508073310 13 108 0.0 3.2 0.00 0.00 0.00 72
20260508072806 13 125 0.0 3.2 0.00 0.00 0.00 72
20260508072307 13 134 0.0 0.0 0.00 0.00 0.00 72
20260508071800 13 121 0.0 1.6 0.00 0.00 0.00 72
20260508071258 13 123 0.0 1.6 0.00 0.00 0.00 73
20260508070755 13 118 0.0 1.6 0.00 0.00 0.00 74
20260508070254 13 125 1.6 3.2 0.00 0.00 0.00 74
20260508065750 12 123 1.6 3.2 0.00 0.00 0.00 75
20260508065248 12 123 1.6 1.6 0.00 0.00 0.00 78
20260508064746 11 127 0.0 0.0 0.00 0.00 0.00 85
20260508064244 11 127 0.0 0.0 0.00 0.00 0.00 87
20260508063741 12 127 0.0 0.0 0.00 0.00 0.00 86
20260508063239 12 128 0.0 0.0 0.00 0.00 0.00 86
20260508062736 12 128 0.0 0.0 0.00 0.00 0.00 85
20260508062234 12 128 0.0 0.0 0.00 0.00 0.00 83
20260508061730 12 128 0.0 0.0 0.00 0.00 0.00 81
20260508061227 12 128 0.0 0.0 0.00 0.00 0.00 83
20260508060724 13 128 0.0 0.0 0.00 0.00 0.00 81
20260508060222 13 128 0.0 0.0 0.00 0.00 0.00 78
20260508055717 13 128 0.0 0.0 0.00 0.00 0.00 74
20260508055214 13 127 0.0 0.0 0.00 0.00 0.00 70
20260508054710 13 123 0.0 1.6 0.00 0.00 0.00 70
20260508054209 13 130 0.0 0.0 0.00 0.00 0.00 70
20260508053705 13 129 0.0 1.6 0.00 0.00 0.00 71
20260508053203 13 125 0.0 1.6 0.00 0.00 0.00 72
20260508052700 13 125 0.0 1.6 0.00 0.00 0.00 70
20260508052157 13 127 0.0 0.0 0.00 0.00 0.00 73
20260508051653 13 129 0.0 0.0 0.00 0.00 0.00 73
20260508051148 13 125 0.0 0.0 0.00 0.00 0.00 76
20260508050645 14 130 0.0 0.0 0.00 0.00 0.00 78
20260508050142 14 130 0.0 0.0 0.00 0.00 0.00 73
20260508045638 15 130 0.0 0.0 0.00 0.00 0.00 78
20260508045136 15 128 0.0 3.2 0.00 0.00 0.00 66
20260508044633 15 127 0.0 0.0 0.00 0.00 0.00 67
20260508044129 15 118 1.6 3.2 0.00 0.00 0.00 66
20260508043626 15 131 0.0 4.8 0.00 0.00 0.00 66
20260508043124 15 130 0.0 3.2 0.00 0.00 0.00 69
20260508042620 14 125 0.0 3.2 0.00 0.00 0.00 69
20260508042117 14 132 0.0 4.8 0.00 0.00 0.00 70
20260508041613 13 126 0.0 0.0 0.00 0.00 0.00 75
20260508041110 13 126 0.0 0.0 0.00 0.00 0.00 75
20260508040607 14 127 0.0 0.0 0.00 0.00 0.00 76
20260508040105 14 126 0.0 0.0 0.00 6.17 6.17 78
20260508035601 14 126 0.0 0.0 0.00 6.17 6.17 74
20260508035059 15 126 0.0 0.0 0.00 6.17 6.17 74
20260508034555 15 129 0.0 0.0 0.00 6.17 6.17 70
20260508034053 15 134 0.0 0.0 0.00 6.17 6.17 68
20260508033550 15 133 0.0 0.0 0.00 6.17 6.17 68
20260508033049 15 134 0.0 0.0 0.00 6.17 6.17 68
20260508032544 15 135 0.0 0.0 0.00 6.17 6.17 71
20260508032042 15 130 0.0 4.8 0.00 6.17 6.17 64
20260508031539 15 128 0.0 3.2 0.00 6.17 6.17 65
20260508031035 15 129 0.0 1.6 0.00 6.17 6.17 66
20260508030531 15 127 0.0 1.6 0.00 6.17 6.17 65
20260508030030 15 129 0.0 1.6 0.00 6.17 6.17 64
20260508025525 15 129 0.0 4.8 0.00 6.17 6.17 65
20260508025023 15 112 0.0 3.2 0.00 6.17 6.17 66
20260508024518 15 130 0.0 6.4 0.00 6.17 6.17 65
20260508024015 15 134 0.0 9.7 0.00 6.17 6.17 66
20260508023512 15 116 1.6 1.6 0.00 6.17 6.17 67
20260508023010 15 119 1.6 1.6 0.00 6.17 6.17 68
20260508022505 15 135 0.0 0.0 0.00 6.17 6.17 71
20260508022003 16 137 0.0 1.6 0.00 6.17 6.17 68
20260508021458 16 129 0.0 6.4 0.00 6.17 6.17 67
20260508020954 16 122 1.6 1.6 0.00 6.17 6.17 68
20260508020452 16 109 3.2 6.4 0.00 6.17 6.17 67
20260508015949 16 126 0.0 0.0 0.00 6.17 6.17 69
20260508015447 16 63 4.8 6.4 0.00 6.17 6.17 68
20260508014943 16 127 0.0 1.6 0.00 6.17 6.17 69
20260508014440 16 134 0.0 4.8 0.00 6.17 6.17 68
20260508013936 16 115 0.0 4.8 0.00 6.17 6.17 68
20260508013432 16 105 0.0 1.6 0.00 6.17 6.17 69
20260508012930 16 71 3.2 3.2 0.00 6.17 6.17 69
20260508012426 16 123 1.6 4.8 0.00 6.17 6.17 68
20260508011924 17 122 0.0 1.6 0.00 6.17 6.17 68
20260508011422 17 177 1.6 4.8 0.00 6.17 6.17 68
20260508010919 17 77 1.6 9.7 0.00 6.17 6.17 67
20260508010416 17 118 0.0 6.4 0.00 6.17 6.17 68
20260508005913 17 127 1.6 3.2 0.00 6.17 6.17 67
20260508005410 17 124 0.0 4.8 0.00 6.17 6.17 67
20260508004906 17 84 1.6 6.4 0.00 6.17 6.17 68
20260508004402 18 114 4.8 6.4 0.00 6.17 6.17 67
20260508003859 18 133 0.0 1.6 0.00 6.17 6.17 68
20260508003356 18 90 3.2 6.4 0.00 6.17 6.17 67